Location: Kerentrech
(47.7567°N, 3.3595°W)
Time: 07:20:06
(UTC+00:00)

USA 116 - Pass Details

Date: 17 February 2020
Orbit: 405 x 834 km, 97.9° (Epoch: 18 November)

Event Time Altitude Azimuth Distance (km) Brightness Sun altitude
Rises 05:43:06 0° 165° (SSE) 2,427 7.2 -16.4°
Reaches altitude 10° 05:45:10 10° 165° (SSE) 1,524 6.2 -16.1°
Maximum altitude 05:48:22 89° 77° (ENE) 420 3.1 -15.5°
Drops below altitude 10° 05:51:29 10° 347° (NNW) 1,478 5.8 -15.0°
Sets 05:53:27 0° 347° (NNW) 2,344 6.8 -14.7°
